Location: Ferris
(32.5340°N, 96.6656°W)
Time: 10:14:29
(UTC+00:00)

Cosmos 2208 Rocket - Pass Details

Date: 11 February 2026
Orbit: 749 x 802 km, 74.0° (Epoch: 8 March)

Event Time Altitude Azimuth Distance (km) Brightness Sun altitude
Rises 12:09:35 0° 341° (NNW) 3,306 7.0 -13.9°
Reaches altitude 10° 12:11:59 10° 340° (NNW) 2,376 6.3 -13.4°
Maximum altitude 12:17:24 76° 256° (WSW) 827 4.0 -12.3°
Drops below altitude 10° 12:22:47 10° 171° (S) 2,366 6.8 -11.2°
Sets 12:25:10 0° 169° (S) 3,290 7.6 -10.7°
